Regional Weather Roundup
Issued by NWS Wakefield, VA

Home | Current Version | Previous Version | Graphics & Text | Print | Product List | Glossary On
Versions: 1 2 3 4 5 6 7 8 9 10 11 12 13 14 15 16 17 18 19 20 21 22 23 24 25 26 27 28 29 30 31 32 33 34 35 36 37 38 39 40 41 42 43 44 45 46 47 48 49 50
000
ASUS41 KAKQ 291210
RWRAKQ

REGIONAL WEATHER ROUNDUP
NATIONAL WEATHER SERVICE WAKEFIELD VA
700 AM EST THU JAN 29 2015

Note: "fair" indicates few or no clouds below 12,000 feet with no
significant weather and/or obstructions to visibility. * = Denotes
station may not report precipitation (e.g., rain,snow,etc.),
thunder or fog.

VAZ042-051-052>054-056-291300-
NORTHERN VIRGINIA

CITY           SKY/WX    TMP DP  RH WIND       PRES   REMARKS
WASH NATIONAL  PTCLDY    28  13  53 CALM      30.35S
DULLES         PTCLDY    15  11  83 CALM      30.31F
FORT BELVOIR   CLEAR     16  13  86 MISG      30.34S
QUANTICO       PTCLDY    20  14  77 NW5       30.35S
FREDERICKSBRG* CLEAR     19  15  84 W3        30.34R
STAFFORD*      CLEAR     16  11  83 CALM      30.38R
WARRENTON      CLEAR     18  18 100 CALM      30.31S
CULPEPER*      PTCLDY    18  16  93 CALM      30.32S
MANASSAS*      CLEAR     16  16 100 CALM      30.33S
LEESBURG*      PTCLDY    18  14  86 NW3       30.32S
WINCHESTER     MOCLDY    21  12  68 CALM      30.27S
FRONT ROYAL*   FAIR      19  18  93 CALM      30.26S
LURAY*         FAIR      23  19  86 CALM      30.25F
$$

VAZ048-049-060>072-079>083-291300-
CENTRAL AND SOUTH CENTRAL VIRGINIA

CITY           SKY/WX    TMP DP  RH WIND       PRES   REMARKS
RICHMOND       PTCLDY    23  12  62 CALM      30.34R
CHESTERFIELD*  FAIR      18   3  53 CALM      30.35R
PETERSBURG*    PTCLDY    18  16  91 CALM      30.36R
HANOVER        CLEAR     20  13  74 CALM      30.35R
TAPPAHANNOCK*  CLEAR     17  11  79 CALM      30.34S
QUINTON*       FAIR      19  13  78 CALM      30.35R
CHARLOTTSVILLE CLOUDY    24  10  55 CALM      30.30S
GORDONSVILLE*  FAIR      19  16  86 CALM      30.32R
ORANGE*        MOCLDY    21  19  93 S3        30.33R
LOUISA*        MOCLDY    19  12  73 CALM      30.30R
BUMPASS*       FAIR      19  14  83 CALM      30.31F
FARMVILLE*     MOCLDY    19  15  88 CALM      30.32S
CREWE*         FAIR      19  15  86 CALM      30.33R
FORT PICKETT*  FAIR      19  15  82 CALM      30.33R
CHASE CITY*    FAIR      23  16  74 CALM      30.34R
CLARKSVILLE*   FAIR      21  19  93 CALM      30.33R
SOUTH HILL*    PTCLDY    19  14  82 CALM      30.39R
LAWRENCEVILLE* FAIR      18  15  86 CALM      30.34R
EMPORIA*       CLEAR     18  16  93 CALM      30.38R
$$

VAZ088>098-291300-
SOUTHEAST VIRGINIA

CITY           SKY/WX    TMP DP  RH WIND       PRES   REMARKS
NORFOLK        CLEAR     32  19  58 N5        30.34R
VIRGINIA BEACH CLEAR     25  16  68 W3        30.34R
NORFOLK NAVAL  PTCLDY    31  19  61 N7        30.36R
WEST POINT*    CLEAR     19  14  79 CALM      30.37R
SALUDA*        FAIR      23  15  70 CALM      30.34R
NEWPORT NEWS   CLEAR     23  15  71 N5        30.35R
LANGLEY AFB    CLEAR     24  14  66 NW6       30.35R
FORT EUSTIS    CLEAR     25  16  68 E2        30.33R
WILLIAMSBURG*    N/A     25  18  74 CALM      30.35S
HR EXEC AP*    FAIR      16  12  86 CALM      30.37R
FRANKLIN*      CLEAR     19  14  81 CALM      30.36R
WAKEFIELD      CLEAR     20  13  74 CALM      30.35R
$$

VAZ020-022-025-037-045-291300-
WEST CENTRAL AND SOUTHWEST VIRGINIA

CITY           SKY/WX    TMP DP  RH WIND       PRES   REMARKS
STAUNTON*      MOCLDY    19  15  84 CALM      30.26F
WAYNESBORO*    FAIR      18  13  81 CALM      30.23F
HOT SPRINGS VA PTCLDY    25   9  50 S15G22    30.07F WCI  12
LYNCHBURG      CLEAR     21   9  59 CALM      30.30S
DANVILLE       PTCLDY    20  15  81 CALM      30.32S
SOUTH BOSTON*  FAIR      19  16  88 CALM      30.34R
MARTINSVILLE   PTCLDY    19  18  98 CALM      30.32S
ROANOKE        PTCLDY    24  16  71 CALM      30.28F
BLACKSBURG     MOCLDY    20  14  78 CALM      30.24F
DUBLIN*        PTCLDY    21  18  88 CALM      30.22S
MARION*        MOCLDY    25  19  77 SE5       30.19F
HILLSVILLE*    PTCLDY    29  15  55 S8        30.17F
RICHLANDS*     FAIR      36   9  33 S5        30.10S
WISE*          MOCLDY    36  14  41 S9        30.11R
ABINGDON*      MOCLDY    31  21  68 E6        30.15S
$$

MDZ021>025-VAZ099-100-291300-
SOUTHERN MARYLAND AND THE DELMARVA PENINSULA

CITY           SKY/WX    TMP DP  RH WIND       PRES   REMARKS
PATUXENT RIVER PTCLDY    20  11  68 W5        30.34R
BAY BRIDGE APT   N/A     27  14  59 CALM      30.35S
LEONARDTOWN    CLEAR     19  10  68 CALM      30.35
DOVER          CLEAR     20  10  66 NW2       30.34R
GEORGETOWN     CLEAR     20   9  62 CALM      30.35R
EASTON         NOT AVBL
CAMBRIDGE      CLEAR     23  18  80 CALM      30.33S
SALISBURY      CLEAR     20  13  74 CALM      30.34R
OCEAN CITY     CLEAR     20  11  68 N6        30.34R
WALLOPS ISLAND CLEAR     21  12  68 N6        30.34R
ACCOMACK*      CLEAR     23  14  68 CALM      30.34R
$$

NCZ012>017-030>032-291300-
NORTH CENTRAL AND EASTERN NORTH CAROLINA

CITY           SKY/WX    TMP DP  RH WIND       PRES   REMARKS
ROANOKE RAPIDS FAIR      21  19  93 CALM      30.36R
RALEIGH        MOCLDY    24  14  65 CALM      30.35R
ELIZABETH CITY CLEAR     21  14  74 W6        30.36R
AHOSKIE*       CLEAR     19  14  81 CALM      30.37R
EDENTON*       CLEAR     22  15  74 CALM      30.36R
CURRITUCK*     CLEAR     24  16  69 W3        30.35R
KILL DEVIL HLS CLEAR     30  24  77 NW3       30.31R
MANTEO         CLEAR     30  21  69 N5        30.33R
CAPE HATTERAS  CLEAR     34  21  59 VRB7      30.33R
TARBORO*       FAIR      20  18  93 CALM      30.37R
GOLDSBORO      PTCLDY    23  22  97 CALM      30.35R
WASHINGTON     CLEAR     22  16  79 CALM      30.37R
GREENVILLE     CLEAR     21  21 100 CALM      30.36S
NEW BERN       CLEAR     24  19  81 CALM      30.37R
WILMINGTON     PTCLDY    26  21  81 CALM      30.36R
$$

VAZ048-291300-
ELSEWHERE

CITY           SKY/WX    TMP DP  RH WIND       PRES   REMARKS
HARRISBURG PA  PTCLDY    10   5  80 VRB5      30.31S
BALTIMORE      PTCLDY    18  10  71 CALM      30.33S
ANNAPOLIS      CLEAR     22  12  65 CALM      30.35R
ANDREWS AFB    CLEAR     18  13  82 CALM      30.32S
PHILADELPHIA   PTCLDY    23   4  44 N3        30.35R
HENDERSON NC   PTCLDY    23  17  80 CALM      30.33S
GREENSBORO     PTCLDY    25  17  72 S5        30.29S
ROCKY MOUNT    CLEAR     23  18  81 CALM      30.36R
$$

VAZ100-291300-
MARINE

STATION/POSITION TIME  TEMP    WIND        PRES    WAVE   SWELL
                       AIR SEA DIR/SP/G            HT/PER HT/PER
                 (UTC) (F)     (DEG/KT/KT) (MB)    (FT/S) (FT/S)
BRANDYWINE LGT   1200   27 36   20/ 10/ 12 1027.4R
CAPE MAY NJ      1200   24 36   10/  4/  7 1026.9R
LEWES DE         1200   29 36   10/  7/ 10 1027.2R
15NM E FENWICK I 1200   32 40              1026.4R   5/ 7
OCEAN-CITY-INLET 1200   24 37  340/  5/  6 1026.8R
WACHAPREAGUE VA  1200   25 36  300/  1/  4 1027.1R
THOMAS POINT MD  1200   27 35  340/  5/  6 1028.6R
COVE POINT MD    1200   28     350/  6/  9 1027.1R
SOLOMONS ISLAND  1200      37                N/A
BISHOPS HEAD MD  1200   26 32  360/  3/  4 1026.7R
PINEY POINT MD   1200           10/  7/  8   N/A
CAMBRIDGE MD     1200   28 35  350/  5/  7 1027.1S
LEWISETTA VA     1200   26 35  290/  2/  2 1027.3S
RAPPAHANNOCK LGT 1200           10/ 10/ 11 1027.6R
YORK RVR RNG VA  1200   31     350/ 11/ 12 1026.7R
YORKTOWN VA      1200   29 39  330/  5/  8 1027.4R
DOMINION TERM VA 1200   29      CALM  /  3 1027.4R
KIPTOPEKE VA     1200      43   20/  4/  5   N/A
CHES BAY BRIDGE  1200   33 40  360/ 10/ 12 1026.8R
CAPE HENRY VA    1200   32      10/ 13/ 14 1025.7R
CHESAPEAKE LGHT  1100   32      20/ 12/ 14 1026.7S
WILLOUBY STN VA  1200   30     340/  8/  9 1027.8R
S CRANEY ISL VA  1200          350/  6/  8 1027.5R
CAPE HENRY BUOY  1200      42                N/A     4/13   2/13
CAPE CHARLES BUO 1200      41                N/A     3/13   3/13
OFFSHORE WE BUOY 1200      43                N/A     5/ 6   5/ 6
64NM E OF VA BCH 1200   37 49  360/ 12/ 16 1025.4R   6/11   5/11
DUCK PIER NC     1200   32 42  330/  8/ 10 1026.0R
44100 DUCK FRF   1200      44                N/A     5/12   2/12
44056 DUCK FRF   1200      42                N/A     4/ 7   2/13
OREGON INLET NC  1200   33 41  330/  6/ 10 1026.7R
HATTERAS NC      1200   36 43   10/ 12/ 13 1027.0R
DIAMOND SHLS NC  1200   39 71  350/ 14/ 19 1026.3R   6/ 8   5/ 8
CAPE LOOKOUT NC  1100   34      20/  5/  6 1026.7R
$$



USA.gov is the U.S. government's official web portal to all federal, state and local government web resources and services.